Location: Newark
(45.0333°N, 18.2865°E)
Time: 22:01:05
(UTC+00:00)

N. Korean satellite - Pass Details

Date: 23 September 2021
Orbit: 450 x 494 km, 97.3° (Epoch: 28 October)

Event Time Altitude Azimuth Distance (km) Brightness Sun altitude
Rises 02:52:18 0° 36° (NE) 2,524 11.1 -18.6°
Reaches altitude 10° 02:56:18 10° 82° (E) 1,653 10.5 -18.0°
Maximum altitude 02:56:45 10° 90° (E) 1,642 10.4 -17.9°
Drops below altitude 10° 02:57:13 10° 97° (E) 1,654 10.2 -17.8°
Sets 03:01:13 0° 143° (SE) 2,540 10.5 -17.1°
